QPF
0.01 0.01 0.01 0.01 0.02 0.02 0.02 0.02 0.02 0.02 0.02 0.02 0.02 0.03 0.04 0.04 0.05 0.07 0.08 0.07 0.07 0.08 0.07 0.08 0.11 0.11 0.09 0.07 0.06 0.06 0.05 0.06 0.06 0.07 0.05 0.05 0.05 0.05 0.04 0.03 0.03 0.03 0.03
0.01 0.01 0.01 0.01 0.01 0.01 0.01 0.02 0.01 0.01 0.02 0.02 0.02 0.03 0.03 0.04 0.05 0.05 0.06 0.07 0.09 0.09 0.08 0.09 0.09 0.08 0.06 0.05 0.05 0.05 0.04 0.04 0.04 0.05 0.05 0.04 0.04 0.04 0.04 0.04 0.04 0.04 0.06
0.01 0.01 0.01 0.01 0.01 0.01 0.01 0.01 0.01 0.01 0.03 0.03 0.03 0.04 0.04 0.05 0.05 0.05 0.06 0.09 0.10 0.09 0.08 0.08 0.07 0.07 0.07 0.05 0.04 0.04 0.03 0.02 0.03 0.04 0.04 0.03 0.02 0.02 0.03 0.03 0.03 0.05 0.07
0.01 0.01 0.01 0.01 0.01 0.01 0.01 0.01 0.01 0.02 0.03 0.04 0.03 0.04 0.05 0.04 0.03 0.04 0.05 0.10 0.12 0.13 0.11 0.08 0.07 0.06 0.07 0.06 0.04 0.03 0.03 0.03 0.03 0.03 0.04 0.03 0.02 0.02 0.05 0.06 0.05 0.05 0.04
0.01 0.01 0.01 0.01 0.02 0.01 0.01 0.01 0.02 0.03 0.04 0.05 0.05 0.04 0.03 0.02 0.03 0.04 0.05 0.07 0.08 0.10 0.12 0.11 0.07 0.05 0.05 0.05 0.04 0.05 0.04 0.04 0.03 0.03 0.04 0.02 0.02 0.03 0.03 0.02 0.03 0.03 0.02
0.01 0.01 0.01 0.01 0.02 0.02 0.01 0.01 0.01 0.03 0.04 0.05 0.05 0.04 0.02 0.02 0.02 0.02 0.04 0.05 0.07 0.08 0.11 0.11 0.08 0.06 0.05 0.04 0.04 0.04 0.05 0.05 0.04 0.03 0.03 0.03 0.02 0.02 0.02 0.02 0.02 0.02 0.02
0.01 0.02 0.02 0.02 0.02 0.02 0.02 0.02 0.02 0.02 0.04 0.06 0.06 0.07 0.05 0.04 0.04 0.03 0.03 0.04 0.07 0.07 0.08 0.08 0.06 0.06 0.06 0.04 0.04 0.03 0.04 0.05 0.05 0.05 0.05 0.05 0.04 0.04 0.04 0.03 0.03 0.03 0.03
0.01 0.01 0.02 0.02 0.02 0.02 0.02 0.02 0.02 0.03 0.04 0.06 0.07 0.09 0.10 0.10 0.09 0.07 0.06 0.05 0.06 0.07 0.07 0.06 0.06 0.05 0.03 0.03 0.03 0.03 0.03 0.04 0.04 0.04 0.04 0.04 0.05 0.06 0.05 0.05 0.05 0.05 0.04
0.01 0.01 0.02 0.03 0.03 0.02 0.02 0.02 0.02 0.02 0.03 0.05 0.06 0.07 0.07 0.07 0.07 0.06 0.05 0.04 0.04 0.05 0.06 0.06 0.06 0.06 0.05 0.05 0.04 0.05 0.05 0.05 0.05 0.04 0.04 0.04 0.05 0.04 0.05 0.06 0.06 0.05 0.05
0.02 0.02 0.03 0.04 0.04 0.03 0.03 0.03 0.03 0.02 0.03 0.05 0.05 0.03 0.02 0.01 0.02 0.03 0.03 0.02 0.02 0.02 0.03 0.04 0.05 0.04 0.05 0.06 0.05 0.04 0.04 0.04 0.05 0.05 0.05 0.05 0.04 0.03 0.03 0.05 0.05 0.06 0.06
0.02 0.03 0.03 0.04 0.04 0.04 0.04 0.04 0.02 0.01 0.01 0.02 0.01 0.01 0.01 0.01 0.01 0.02 0.03 0.02 0.02 0.02 0.02 0.02 0.02 0.02 0.02 0.02 0.02 0.02 0.02 0.02 0.03 0.03 0.04 0.04 0.04 0.03 0.03 0.03 0.04 0.05 0.06
0.01 0.02 0.03 0.02 0.02 0.02 0.02 0.02 0.02 0.01 0.01 0.01 0.01 0.02 0.01 0.01 0.02 0.03 0.03 0.03 0.03 0.02 0.03 0.03 0.04 0.03 0.02 0.01 0.01 0.01 0.01 0.01 0.01 0.02 0.03 0.03 0.03 0.03 0.03 0.03 0.02 0.03 0.04
0.01 0.01 0.02 0.02 0.02 0.02 0.02 0.02 0.02 0.02 0.02 0.02 0.03 0.03 0.03 0.03 0.03 0.03 0.03 0.03 0.03 0.03 0.04 0.06 0.06 0.05 0.03 0.02 0.01 0.01 0.01 0.01 0.01 0.02 0.02 0.02 0.03 0.03 0.03 0.02 0.02 0.03 0.04
0.02 0.03 0.03 0.02 0.02 0.02 0.02 0.02 0.02 0.02 0.03 0.04 0.04 0.04 0.05 0.07 0.07 0.05 0.04 0.03 0.04 0.04 0.04 0.05 0.04 0.03 0.03 0.03 0.02 0.01 0.01 0.01 0.01 0.02 0.02 0.03 0.03 0.04 0.04 0.03 0.03 0.03 0.03
0.03 0.04 0.04 0.04 0.03 0.03 0.02 0.02 0.02 0.02 0.02 0.02 0.03 0.04 0.04 0.04 0.06 0.06 0.05 0.03 0.03 0.03 0.03 0.03 0.02 0.02 0.03 0.03 0.02 0.02 0.02 0.02 0.01 0.02 0.02 0.03 0.03 0.03 0.03 0.03 0.03 0.03 0.03
0.03 0.04 0.04 0.03 0.03 0.02 0.02 0.02 0.03 0.03 0.02 0.02 0.03 0.02 0.02 0.02 0.04 0.05 0.07 0.06 0.05 0.05 0.04 0.04 0.03 0.03 0.03 0.03 0.03 0.03 0.02 0.02 0.02 0.03 0.03 0.03 0.02 0.02 0.02 0.02 0.02 0.02 0.02
0.03 0.03 0.03 0.03 0.02 0.02 0.01 0.01 0.02 0.04 0.02 0.02 0.02 0.02 0.02 0.03 0.03 0.04 0.05 0.08 0.08 0.06 0.04 0.03 0.03 0.02 0.03 0.04 0.05 0.05 0.05 0.04 0.04 0.04 0.04 0.03 0.03 0.03 0.03 0.03 0.03 0.03 0.02
0.03 0.03 0.03 0.03 0.03 0.02 0.01 0.01 0.00 0.01 0.01 0.01 0.01 0.02 0.03 0.03 0.03 0.04 0.04 0.04 0.04 0.03 0.02 0.02 0.03 0.03 0.03 0.04 0.06 0.07 0.06 0.05 0.04 0.04 0.04 0.04 0.03 0.03 0.03 0.03 0.03 0.03 0.03
0.02 0.03 0.02 0.03 0.02 0.02 0.01 0.01 0.00 0.00 0.00 0.00 0.00 0.01 0.02 0.02 0.02 0.03 0.03 0.03 0.03 0.03 0.02 0.02 0.02 0.03 0.03 0.03 0.02 0.02 0.02 0.02 0.02 0.02 0.03 0.03 0.04 0.03 0.03 0.03 0.04 0.04 0.04
0.02 0.02 0.02 0.02 0.02 0.01 0.01 0.01 0.01 0.01 0.01 0.01 0.00 0.01 0.01 0.01 0.01 0.01 0.02 0.02 0.03 0.03 0.03 0.03 0.03 0.03 0.02 0.02 0.02 0.02 0.02 0.02 0.01 0.01 0.02 0.02 0.03 0.03 0.03 0.04 0.05 0.05 0.05
0.02 0.02 0.02 0.02 0.01 0.01 0.01 0.01 0.01 0.01 0.01 0.01 0.01 0.02 0.02 0.01 0.01 0.01 0.01 0.02 0.02 0.03 0.03 0.04 0.04 0.03 0.03 0.02 0.02 0.01 0.01 0.01 0.01 0.01 0.02 0.03 0.03 0.04 0.04 0.05 0.05 0.05 0.05
0.02 0.02 0.02 0.02 0.01 0.01 0.01 0.01 0.01 0.01 0.01 0.01 0.01 0.02 0.02 0.01 0.01 0.01 0.02 0.02 0.03 0.03 0.03 0.03 0.03 0.02 0.02 0.02 0.02 0.02 0.02 0.02 0.02 0.02 0.02 0.02 0.02 0.02 0.02 0.03 0.03 0.03 0.03
0.02 0.01 0.01 0.01 0.01 0.01 0.01 0.01 0.01 0.01 0.01 0.01 0.01 0.02 0.02 0.02 0.02 0.02 0.02 0.02 0.02 0.02 0.02 0.03 0.03 0.03 0.03 0.03 0.03 0.02 0.02 0.02 0.01 0.01 0.01 0.01 0.01 0.02 0.02 0.02 0.02 0.02 0.01
0.01 0.01 0.01 0.01 0.02 0.01 0.01 0.01 0.01 0.01 0.01 0.01 0.01 0.02 0.02 0.01 0.01 0.01 0.02 0.02 0.02 0.02 0.02 0.02 0.02 0.02 0.02 0.02 0.01 0.01 0.01 0.01 0.01 0.01 0.01 0.01 0.01 0.01 0.02 0.02 0.01 0.01 0.02
0.02 0.02 0.02 0.02 0.02 0.02 0.01 0.02 0.02 0.02 0.02 0.02 0.02 0.02 0.02 0.02 0.02 0.02 0.02 0.02 0.01 0.01 0.00 0.01 0.01 0.01 0.01 0.01 0.01 0.01 0.01 0.01 0.01 0.01 0.01 0.01 0.01 0.02 0.02 0.02 0.02 0.02 0.02
0.02 0.03 0.03 0.03 0.02 0.02 0.03 0.03 0.04 0.03 0.02 0.02 0.01 0.01 0.01 0.01 0.01 0.01 0.01 0.01 0.01 0.01 0.01 0.01 0.01 0.01 0.02 0.02 0.02 0.02 0.01 0.01 0.01 0.01 0.01 0.01 0.02 0.02 0.02 0.02 0.02 0.02 0.02
MSLP
1021.05 1021.41 1021.75 1022.01 1022.19 1022.28 1022.29 1022.25 1022.20 1022.16 1022.14 1022.16 1022.19 1022.22 1022.21 1022.15 1022.04 1021.88 1021.68 1021.48 1021.32 1021.22 1021.20 1021.26 1021.40 1021.59 1021.81 1022.04 1022.27 1022.49 1022.72 1022.97 1023.25 1023.59 1023.99 1024.42 1024.86 1025.29 1025.66 1025.95 1026.15 1026.26 1026.29
1021.21 1021.60 1021.96 1022.25 1022.45 1022.57 1022.61 1022.60 1022.58 1022.55 1022.55 1022.57 1022.59 1022.62 1022.62 1022.58 1022.50 1022.38 1022.24 1022.10 1021.98 1021.92 1021.91 1021.95 1022.05 1022.17 1022.31 1022.45 1022.59 1022.74 1022.90 1023.11 1023.38 1023.70 1024.09 1024.52 1024.96 1025.38 1025.75 1026.04 1026.24 1026.35 1026.40
1021.37 1021.79 1022.17 1022.48 1022.71 1022.86 1022.94 1022.97 1022.97 1022.98 1022.98 1023.01 1023.04 1023.06 1023.06 1023.04 1022.98 1022.90 1022.82 1022.73 1022.67 1022.65 1022.66 1022.70 1022.77 1022.86 1022.94 1023.02 1023.10 1023.18 1023.30 1023.46 1023.69 1023.98 1024.33 1024.72 1025.11 1025.49 1025.81 1026.07 1026.24 1026.35 1026.41
1021.53 1021.98 1022.38 1022.71 1022.97 1023.15 1023.26 1023.33 1023.38 1023.41 1023.44 1023.48 1023.51 1023.54 1023.55 1023.54 1023.50 1023.46 1023.42 1023.38 1023.36 1023.38 1023.42 1023.47 1023.54 1023.60 1023.65 1023.69 1023.73 1023.78 1023.85 1023.97 1024.15 1024.39 1024.68 1025.00 1025.33 1025.64 1025.89 1026.09 1026.22 1026.31 1026.36
1021.67 1022.14 1022.56 1022.92 1023.20 1023.41 1023.56 1023.68 1023.76 1023.83 1023.89 1023.95 1024.00 1024.03 1024.05 1024.05 1024.04 1024.02 1024.00 1024.01 1024.03 1024.07 1024.14 1024.21 1024.28 1024.34 1024.38 1024.40 1024.42 1024.44 1024.48 1024.57 1024.70 1024.88 1025.10 1025.35 1025.59 1025.82 1026.00 1026.13 1026.21 1026.26 1026.30
1021.78 1022.27 1022.70 1023.07 1023.38 1023.62 1023.81 1023.96 1024.09 1024.20 1024.30 1024.38 1024.44 1024.49 1024.52 1024.53 1024.53 1024.54 1024.55 1024.58 1024.62 1024.70 1024.78 1024.87 1024.95 1025.01 1025.05 1025.07 1025.07 1025.08 1025.11 1025.16 1025.25 1025.38 1025.54 1025.71 1025.87 1026.01 1026.12 1026.18 1026.22 1026.24 1026.26
1021.83 1022.34 1022.78 1023.16 1023.48 1023.74 1023.97 1024.16 1024.33 1024.47 1024.60 1024.71 1024.80 1024.86 1024.90 1024.93 1024.94 1024.96 1024.99 1025.04 1025.11 1025.20 1025.31 1025.41 1025.50 1025.57 1025.62 1025.64 1025.65 1025.65 1025.66 1025.69 1025.75 1025.83 1025.94 1026.04 1026.14 1026.21 1026.26 1026.27 1026.26 1026.26 1026.26
1021.82 1022.32 1022.76 1023.14 1023.47 1023.76 1024.01 1024.23 1024.43 1024.61 1024.77 1024.90 1025.01 1025.09 1025.15 1025.19 1025.22 1025.26 1025.31 1025.38 1025.47 1025.58 1025.69 1025.81 1025.91 1026.00 1026.05 1026.08 1026.09 1026.10 1026.10 1026.12 1026.15 1026.20 1026.26 1026.32 1026.37 1026.39 1026.40 1026.38 1026.35 1026.32 1026.31
1021.71 1022.20 1022.64 1023.02 1023.35 1023.64 1023.91 1024.16 1024.38 1024.59 1024.77 1024.93 1025.06 1025.16 1025.24 1025.30 1025.35 1025.41 1025.48 1025.57 1025.68 1025.81 1025.95 1026.08 1026.19 1026.29 1026.35 1026.39 1026.41 1026.42 1026.42 1026.43 1026.44 1026.47 1026.50 1026.53 1026.54 1026.55 1026.53 1026.50 1026.46 1026.42 1026.41
1021.50 1021.98 1022.40 1022.77 1023.10 1023.41 1023.69 1023.95 1024.20 1024.42 1024.63 1024.81 1024.95 1025.08 1025.17 1025.26 1025.34 1025.42 1025.52 1025.64 1025.78 1025.93 1026.08 1026.23 1026.36 1026.47 1026.54 1026.59 1026.61 1026.62 1026.62 1026.62 1026.62 1026.63 1026.64 1026.66 1026.66 1026.65 1026.63 1026.60 1026.56 1026.53 1026.51
1021.18 1021.64 1022.05 1022.41 1022.75 1023.06 1023.35 1023.63 1023.89 1024.14 1024.36 1024.56 1024.73 1024.87 1025.00 1025.11 1025.22 1025.34 1025.47 1025.62 1025.78 1025.96 1026.13 1026.29 1026.43 1026.54 1026.62 1026.67 1026.69 1026.70 1026.69 1026.68 1026.67 1026.67 1026.68 1026.68 1026.68 1026.67 1026.66 1026.64 1026.62 1026.60 1026.58
1020.76 1021.20 1021.60 1021.96 1022.30 1022.62 1022.93 1023.23 1023.51 1023.78 1024.02 1024.24 1024.43 1024.60 1024.76 1024.90 1025.05 1025.20 1025.36 1025.54 1025.73 1025.92 1026.10 1026.27 1026.42 1026.53 1026.60 1026.64 1026.65 1026.65 1026.63 1026.61 1026.59 1026.58 1026.57 1026.57 1026.58 1026.58 1026.58 1026.58 1026.57 1026.57 1026.57
1020.26 1020.69 1021.09 1021.45 1021.80 1022.14 1022.47 1022.78 1023.09 1023.37 1023.64 1023.89 1024.11 1024.31 1024.50 1024.68 1024.86 1025.04 1025.23 1025.43 1025.63 1025.83 1026.01 1026.17 1026.30 1026.40 1026.46 1026.48 1026.47 1026.45 1026.41 1026.38 1026.35 1026.32 1026.31 1026.31 1026.32 1026.33 1026.34 1026.36 1026.38 1026.40 1026.42
1019.72 1020.14 1020.54 1020.92 1021.28 1021.64 1021.98 1022.32 1022.65 1022.97 1023.26 1023.54 1023.79 1024.02 1024.25 1024.46 1024.66 1024.87 1025.08 1025.28 1025.48 1025.66 1025.83 1025.96 1026.06 1026.13 1026.16 1026.15 1026.12 1026.07 1026.02 1025.97 1025.92 1025.89 1025.87 1025.87 1025.88 1025.90 1025.94 1025.98 1026.02 1026.07 1026.10
1019.18 1019.60 1020.00 1020.38 1020.76 1021.13 1021.50 1021.86 1022.22 1022.56 1022.89 1023.19 1023.48 1023.74 1023.99 1024.23 1024.46 1024.67 1024.88 1025.07 1025.25 1025.40 1025.52 1025.61 1025.67 1025.69 1025.67 1025.63 1025.57 1025.50 1025.43 1025.37 1025.32 1025.28 1025.26 1025.26 1025.28 1025.32 1025.37 1025.43 1025.50 1025.57 1025.63
1018.69 1019.10 1019.49 1019.88 1020.26 1020.64 1021.03 1021.41 1021.78 1022.14 1022.49 1022.82 1023.14 1023.43 1023.71 1023.96 1024.19 1024.40 1024.59 1024.75 1024.88 1024.98 1025.05 1025.08 1025.08 1025.05 1024.99 1024.92 1024.83 1024.75 1024.67 1024.61 1024.56 1024.53 1024.51 1024.52 1024.55 1024.60 1024.66 1024.74 1024.84 1024.93 1025.02
1018.26 1018.65 1019.03 1019.40 1019.78 1020.16 1020.54 1020.92 1021.30 1021.68 1022.05 1022.40 1022.74 1023.05 1023.34 1023.59 1023.82 1024.01 1024.17 1024.28 1024.35 1024.39 1024.39 1024.36 1024.30 1024.22 1024.13 1024.04 1023.95 1023.86 1023.80 1023.75 1023.71 1023.70 1023.70 1023.72 1023.77 1023.82 1023.90 1024.00 1024.10 1024.22 1024.33
1017.90 1018.26 1018.60 1018.95 1019.30 1019.65 1020.01 1020.38 1020.76 1021.14 1021.51 1021.87 1022.22 1022.54 1022.83 1023.08 1023.29 1023.46 1023.57 1023.63 1023.65 1023.62 1023.55 1023.47 1023.36 1023.25 1023.14 1023.05 1022.97 1022.92 1022.88 1022.86 1022.86 1022.88 1022.91 1022.95 1023.00 1023.07 1023.15 1023.25 1023.35 1023.47 1023.58
1017.58 1017.88 1018.18 1018.48 1018.78 1019.10 1019.42 1019.77 1020.12 1020.49 1020.86 1021.22 1021.56 1021.89 1022.17 1022.41 1022.60 1022.73 1022.80 1022.81 1022.77 1022.69 1022.58 1022.46 1022.33 1022.21 1022.11 1022.04 1022.00 1021.99 1022.01 1022.04 1022.09 1022.15 1022.20 1022.26 1022.32 1022.38 1022.45 1022.53 1022.62 1022.72 1022.82
1017.25 1017.49 1017.73 1017.96 1018.21 1018.47 1018.75 1019.05 1019.38 1019.72 1020.08 1020.43 1020.77 1021.08 1021.36 1021.58 1021.75 1021.85 1021.89 1021.86 1021.78 1021.67 1021.54 1021.40 1021.27 1021.17 1021.11 1021.09 1021.11 1021.17 1021.25 1021.35 1021.45 1021.54 1021.62 1021.69 1021.74 1021.78 1021.82 1021.86 1021.91 1021.97 1022.03
1016.87 1017.05 1017.21 1017.38 1017.56 1017.76 1017.99 1018.25 1018.55 1018.87 1019.20 1019.54 1019.87 1020.18 1020.45 1020.66 1020.80 1020.88 1020.89 1020.84 1020.75 1020.62 1020.49 1020.36 1020.27 1020.21 1020.20 1020.25 1020.35 1020.48 1020.63 1020.79 1020.94 1021.07 1021.16 1021.22 1021.25 1021.25 1021.24 1021.22 1021.20 1021.19 1021.18
1016.41 1016.52 1016.61 1016.72 1016.84 1016.99 1017.18 1017.40 1017.67 1017.97 1018.29 1018.62 1018.94 1019.24 1019.50 1019.69 1019.83 1019.90 1019.90 1019.84 1019.74 1019.63 1019.51 1019.42 1019.37 1019.37 1019.43 1019.56 1019.73 1019.93 1020.15 1020.36 1020.54 1020.68 1020.77 1020.81 1020.79 1020.73 1020.64 1020.54 1020.44 1020.35 1020.27
1015.86 1015.91 1015.95 1016.00 1016.08 1016.20 1016.35 1016.56 1016.81 1017.09 1017.41 1017.73 1018.05 1018.34 1018.59 1018.78 1018.91 1018.97 1018.96 1018.91 1018.83 1018.73 1018.65 1018.60 1018.60 1018.67 1018.79 1018.98 1019.22 1019.48 1019.74 1019.98 1020.18 1020.31 1020.37 1020.36 1020.28 1020.15 1019.98 1019.79 1019.60 1019.42 1019.26
1015.26 1015.26 1015.26 1015.29 1015.34 1015.44 1015.59 1015.79 1016.03 1016.32 1016.63 1016.95 1017.27 1017.55 1017.79 1017.98 1018.10 1018.15 1018.15 1018.10 1018.03 1017.96 1017.91 1017.90 1017.95 1018.07 1018.25 1018.49 1018.76 1019.06 1019.34 1019.58 1019.77 1019.87 1019.89 1019.82 1019.68 1019.47 1019.22 1018.94 1018.67 1018.41 1018.18
1014.65 1014.63 1014.62 1014.64 1014.69 1014.80 1014.95 1015.16 1015.41 1015.70 1016.01 1016.33 1016.64 1016.91 1017.14 1017.31 1017.42 1017.46 1017.46 1017.42 1017.36 1017.30 1017.28 1017.30 1017.38 1017.53 1017.74 1018.01 1018.30 1018.60 1018.88 1019.10 1019.26 1019.33 1019.30 1019.17 1018.96 1018.68 1018.36 1018.02 1017.69 1017.37 1017.10
1014.11 1014.08 1014.08 1014.11 1014.18 1014.30 1014.47 1014.69 1014.95 1015.25 1015.56 1015.87 1016.17 1016.42 1016.63 1016.78 1016.87 1016.90 1016.88 1016.84 1016.78 1016.73 1016.72 1016.76 1016.86 1017.02 1017.24 1017.51 1017.79 1018.08 1018.33 1018.53 1018.65 1018.67 1018.59 1018.41 1018.15 1017.83 1017.46 1017.08 1016.71 1016.38 1016.09
Thickness
5786 5783 5780 5777 5774 5771 5768 5765 5762 5759 5756 5753 5750 5747 5744 5742 5740 5738 5738 5736 5735 5733 5732 5731 5728 5727 5727 5726 5725 5724 5722 5719 5712 5709 5708 5706 5702 5700 5698 5696 5694 5692 5688
5785 5782 5778 5775 5772 5769 5767 5764 5761 5757 5755 5751 5748 5745 5743 5740 5738 5736 5734 5733 5731 5730 5728 5727 5725 5724 5721 5721 5720 5718 5717 5714 5710 5704 5702 5700 5697 5695 5693 5691 5690 5688 5684
5784 5780 5776 5773 5770 5767 5764 5761 5758 5755 5753 5750 5746 5743 5740 5738 5735 5733 5731 5729 5727 5726 5724 5722 5720 5718 5716 5715 5714 5714 5712 5711 5707 5702 5698 5694 5692 5690 5688 5686 5684 5681 5680
5781 5777 5772 5769 5766 5763 5761 5757 5754 5752 5749 5746 5743 5740 5737 5734 5732 5729 5727 5724 5722 5720 5718 5716 5715 5713 5711 5710 5709 5707 5706 5704 5701 5699 5694 5691 5687 5684 5682 5680 5677 5675 5673
5777 5773 5769 5765 5762 5759 5756 5753 5750 5748 5746 5743 5739 5736 5733 5730 5727 5725 5722 5720 5717 5714 5712 5710 5708 5705 5703 5703 5703 5701 5699 5698 5696 5694 5689 5685 5681 5677 5676 5676 5672 5669 5666
5771 5768 5765 5761 5758 5754 5751 5748 5745 5742 5740 5737 5734 5730 5727 5724 5719 5717 5716 5714 5711 5708 5705 5704 5702 5699 5696 5694 5692 5690 5690 5689 5688 5686 5683 5678 5674 5673 5670 5670 5667 5664 5659
5766 5762 5759 5755 5752 5749 5747 5743 5739 5736 5733 5730 5727 5724 5720 5715 5711 5709 5707 5707 5705 5702 5700 5698 5697 5694 5692 5690 5686 5683 5682 5679 5678 5678 5675 5671 5669 5667 5664 5663 5659 5657 5653
5760 5756 5753 5750 5746 5743 5740 5736 5733 5731 5727 5724 5721 5718 5714 5708 5704 5702 5700 5701 5699 5696 5693 5691 5689 5687 5685 5683 5682 5679 5677 5673 5671 5670 5667 5664 5662 5659 5657 5656 5652 5649 5646
5754 5750 5747 5745 5741 5738 5734 5730 5727 5724 5721 5718 5715 5711 5708 5703 5697 5695 5693 5695 5692 5689 5686 5684 5681 5679 5675 5674 5675 5672 5669 5666 5662 5659 5657 5655 5652 5650 5648 5649 5646 5644 5640
5747 5744 5741 5738 5735 5732 5727 5724 5721 5718 5715 5712 5708 5705 5702 5698 5691 5689 5687 5691 5687 5684 5680 5676 5671 5669 5666 5665 5666 5663 5660 5658 5656 5654 5650 5647 5645 5642 5640 5639 5638 5636 5634
5741 5738 5734 5732 5729 5725 5721 5718 5714 5712 5708 5705 5701 5698 5695 5690 5685 5682 5680 5683 5682 5678 5675 5671 5665 5659 5657 5655 5655 5654 5651 5650 5649 5647 5644 5641 5638 5635 5632 5629 5627 5627 5624
5734 5730 5728 5725 5723 5719 5714 5711 5708 5705 5701 5698 5694 5691 5688 5683 5679 5674 5672 5671 5671 5669 5667 5664 5657 5651 5649 5647 5646 5643 5641 5641 5642 5640 5637 5633 5630 5627 5624 5621 5618 5615 5613
5724 5721 5718 5716 5714 5711 5707 5704 5701 5698 5697 5694 5690 5686 5683 5678 5673 5668 5664 5662 5660 5660 5657 5652 5648 5644 5642 5640 5637 5635 5634 5635 5634 5631 5628 5625 5622 5619 5617 5614 5610 5607 5604
5716 5712 5709 5707 5704 5701 5699 5697 5695 5693 5690 5687 5684 5680 5677 5673 5669 5664 5661 5656 5652 5651 5648 5643 5639 5637 5635 5632 5631 5630 5629 5627 5626 5623 5620 5617 5615 5612 5610 5607 5605 5601 5598
5708 5705 5702 5700 5696 5692 5688 5685 5684 5680 5679 5677 5676 5674 5670 5665 5657 5653 5653 5651 5647 5644 5642 5640 5637 5635 5632 5630 5627 5624 5622 5620 5617 5615 5612 5610 5607 5605 5602 5599 5596 5593 5590
5701 5698 5697 5694 5689 5686 5681 5676 5668 5668 5665 5663 5661 5660 5657 5651 5646 5644 5641 5638 5635 5633 5633 5634 5631 5629 5626 5623 5621 5618 5614 5611 5609 5606 5604 5601 5599 5596 5594 5591 5588 5585 5582
5694 5692 5691 5688 5683 5679 5676 5673 5667 5659 5654 5652 5651 5648 5645 5640 5637 5635 5632 5628 5626 5624 5626 5626 5623 5621 5619 5616 5613 5610 5607 5603 5600 5598 5595 5592 5589 5587 5584 5582 5579 5576 5574
5687 5683 5682 5679 5677 5674 5670 5668 5664 5660 5656 5650 5643 5638 5635 5632 5630 5627 5624 5622 5622 5619 5620 5618 5615 5613 5611 5608 5605 5602 5599 5596 5592 5589 5587 5584 5582 5579 5576 5573 5570 5566 5565
5679 5677 5674 5672 5669 5666 5664 5661 5659 5655 5652 5647 5642 5634 5628 5625 5622 5620 5617 5620 5619 5616 5613 5611 5608 5606 5603 5599 5596 5592 5590 5587 5584 5581 5579 5575 5573 5571 5568 5565 5563 5557 5555
5670 5666 5665 5665 5662 5660 5657 5654 5651 5648 5645 5642 5638 5633 5627 5624 5622 5618 5615 5615 5613 5610 5608 5604 5600 5597 5594 5591 5587 5584 5582 5579 5576 5573 5571 5568 5565 5562 5560 5557 5555 5552 5549
5664 5659 5654 5656 5655 5652 5650 5647 5644 5641 5638 5635 5631 5626 5619 5621 5619 5615 5613 5609 5606 5603 5601 5597 5594 5591 5587 5583 5580 5577 5574 5572 5568 5566 5563 5559 5557 5554 5552 5549 5547 5544 5541
5656 5653 5651 5648 5646 5644 5642 5640 5638 5634 5632 5628 5624 5620 5612 5613 5613 5609 5606 5603 5600 5596 5593 5590 5587 5584 5579 5576 5573 5570 5567 5565 5561 5557 5554 5552 5549 5547 5544 5542 5539 5536 5532
5647 5645 5643 5641 5638 5634 5634 5633 5631 5628 5625 5622 5618 5615 5610 5608 5606 5603 5599 5596 5592 5589 5585 5581 5579 5575 5571 5568 5565 5562 5559 5556 5552 5549 5546 5544 5542 5539 5536 5533 5530 5527 5525
5640 5638 5635 5633 5631 5629 5627 5625 5623 5620 5617 5615 5611 5608 5605 5601 5599 5596 5592 5589 5585 5581 5578 5574 5571 5567 5563 5560 5557 5554 5550 5545 5542 5540 5538 5536 5534 5532 5529 5526 5523 5521 5517
5631 5630 5627 5625 5623 5621 5620 5617 5616 5613 5611 5608 5604 5601 5598 5595 5592 5589 5586 5582 5578 5574 5570 5567 5563 5560 5555 5552 5548 5544 5540 5536 5533 5531 5529 5528 5527 5524 5521 5518 5516 5513 5510
5623 5621 5619 5617 5615 5614 5612 5610 5608 5606 5604 5601 5598 5595 5592 5589 5586 5583 5580 5576 5572 5568 5564 5560 5557 5552 5548 5544 5540 5535 5532 5529 5525 5522 5520 5520 5519 5517 5514 5512 5509 5506 5503